Tracking 29892 objects as of 21-Nov-2024
HD Live streaming from Space Station
objects crossing your sky now

CZ-6A DEB

Track CZ-6A DEB now!
10-day predictions


NORAD ID: 54512
Int'l Code: 2022-151JQ
Perigee: 644.4 km
Apogee: 807.2 km
Inclination: 98.6 °
Period: 99.2 minutes
Semi major axis: 7096 km
RCS: Unknown
Launch date: November 11, 2022
Source: People's Republic of China (PRC)
Launch site: Taiyaun Space Center, China (TSC)

Note: This is SATELLITE DEBRIS
Your satellite tracking list
Your tracking list is empty




NASA's NSSDC Master Catalog

Two Line Element Set (TLE):
1 54512U 22151JQ  24324.05394670  .00011736  00000-0  26662-2 0  9999
2 54512  98.6396 350.0268 0114739 262.5883  96.2262 14.52135946106119
Source of the keplerian elements: AFSPC